CW6261 Weather Reports


Display with metric or nautical units.
time (UTC)temp
F
wind
direction
speed
MPH
gust
MPH
rain 1hr
in
rain 24hr
in
rain mn
in
humidity
%
barometer
mb
20260906022702 88 116 1.0 2.0 0.00 0.00 0.00 55 101.0
20260906022202 88 196 0.0 1.0 0.00 0.00 0.00 54 101.0
20260906021701 88 202 1.0 1.0 0.00 0.00 0.00 54 101.0
20260906021203 88 148 1.0 2.0 0.00 0.00 0.00 54 101.0
20260906020702 88 142 1.0 1.0 0.00 0.00 0.00 53 101.0
20260906020203 88 164 0.0 1.0 0.00 0.00 0.00 53 101.0
20260906015702 89 202 2.0 2.0 0.00 0.00 0.00 53 101.0
20260906015204 89 115 1.0 2.0 0.00 0.00 0.00 53 101.0
20260906014702 89 120 0.0 1.0 0.00 0.00 0.00 52 101.0
20260906014202 89 114 2.0 4.0 0.00 0.00 0.00 52 101.0
20260906013202 90 121 0.0 4.0 0.00 0.00 0.00 52 101.0
20260906012702 90 180 2.0 5.0 0.00 0.00 0.00 52 101.0
20260906012202 90 147 1.0 3.0 0.00 0.00 0.00 51 101.0
20260906011702 90 221 1.0 5.0 0.00 0.00 0.00 50 101.0
20260906011201 91 120 2.0 6.0 0.00 0.00 0.00 50 101.0
20260906010202 91 89 1.0 2.0 0.00 0.00 0.00 48 101.0
20260906005702 92 283 1.0 2.0 0.00 0.00 0.00 47 101.0
20260906005202 92 172 4.0 4.0 0.00 0.00 0.00 47 101.0
20260906004702 92 112 2.0 3.0 0.00 0.00 0.00 46 101.0
20260906003202 93 231 0.0 2.0 0.00 0.00 0.00 45 101.0
20260906002703 93 175 2.0 2.0 0.00 0.00 0.00 45 101.0
20260906002202 93 248 0.0 4.0 0.00 0.00 0.00 45 101.0
20260906001702 94 154 1.0 3.0 0.00 0.00 0.00 44 101.0
20260906001202 94 144 1.0 4.0 0.00 0.00 0.00 42 101.0
20260906000702 94 203 1.0 4.0 0.00 0.00 0.00 42 101.0
20260906000204 95 198 7.0 7.0 0.00 0.00 0.00 41 101.0
20260905235702 95 311 0.0 3.0 0.00 0.00 0.00 39 101.0
20260905235201 96 148 0.0 6.0 0.00 0.00 0.00 38 101.0
20260905234702 96 237 0.0 1.0 0.00 0.00 0.00 37 101.0
20260905234202 96 242 0.0 4.0 0.00 0.00 0.00 37 101.0
20260905233702 97 234 1.0 3.0 0.00 0.00 0.00 37 101.0
20260905233201 96 260 2.0 4.0 0.00 0.00 0.00 37 101.0
20260905232702 96 212 0.0 2.0 0.00 0.00 0.00 38 101.0
20260905232202 96 153 2.0 6.0 0.00 0.00 0.00 38 101.0
20260905231702 96 210 2.0 6.0 0.00 0.00 0.00 37 101.0
20260905231202 96 236 1.0 5.0 0.00 0.00 0.00 37 101.0
20260905230702 95 293 1.0 2.0 0.00 0.00 0.00 37 101.0
20260905225702 96 151 1.0 2.0 0.00 0.00 0.00 36 100.9
20260905225202 97 224 1.0 3.0 0.00 0.00 0.00 36 100.9
20260905224702 97 99 0.0 2.0 0.00 0.00 0.00 36 100.9
20260905224203 95 212 1.0 2.0 0.00 0.00 0.00 37 100.9
20260905223702 95 202 2.0 3.0 0.00 0.00 0.00 37 100.9
20260905223202 94 221 1.0 4.0 0.00 0.00 0.00 38 100.9
20260905222702 94 219 0.0 1.0 0.00 0.00 0.00 38 101.0
20260905222202 95 137 0.0 2.0 0.00 0.00 0.00 38 101.0
20260905221702 96 278 0.0 1.0 0.00 0.00 0.00 37 101.0
20260905221202 96 326 0.0 2.0 0.00 0.00 0.00 37 101.0
20260905220702 95 30 1.0 3.0 0.00 0.00 0.00 36 101.0
20260905220202 98 144 1.0 3.0 0.00 0.00 0.00 35 101.0
20260905215701 96 218 0.0 2.0 0.00 0.00 0.00 36 101.0
20260905215202 96 22 0.0 2.0 0.00 0.00 0.00 36 101.0
20260905214702 97 202 0.0 4.0 0.00 0.00 0.00 35 101.0
20260905214202 97 303 1.0 4.0 0.00 0.00 0.00 36 101.0
20260905213702 96 100 1.0 2.0 0.00 0.00 0.00 36 101.0
20260905213202 97 230 4.0 4.0 0.00 0.00 0.00 35 101.0
20260905212702 97 300 2.0 2.0 0.00 0.00 0.00 35 101.0
20260905212202 97 250 3.0 4.0 0.00 0.00 0.00 35 101.0
20260905211701 97 234 3.0 4.0 0.00 0.00 0.00 34 101.0
20260905211202 97 209 3.0 6.0 0.00 0.00 0.00 35 101.0
20260905210702 96 154 0.0 2.0 0.00 0.00 0.00 35 101.0
20260905210202 96 320 1.0 3.0 0.00 0.00 0.00 35 101.0
20260905205702 96 119 0.0 2.0 0.00 0.00 0.00 35 101.0
20260905205202 95 221 2.0 2.0 0.00 0.00 0.00 37 101.0
20260905204702 96 231 4.0 5.0 0.00 0.00 0.00 36 101.0
20260905203702 96 288 3.0 3.0 0.00 0.00 0.00 36 101.0
20260905203202 95 190 1.0 4.0 0.00 0.00 0.00 37 101.0
20260905202203 95 214 3.0 7.0 0.00 0.00 0.00 37 101.0
20260905201702 96 249 3.0 8.0 0.00 0.00 0.00 37 101.1
20260905201202 97 204 4.0 8.0 0.00 0.00 0.00 36 101.1
20260905200702 96 212 2.0 4.0 0.00 0.00 0.00 36 101.1
20260905200202 95 250 1.0 4.0 0.00 0.00 0.00 38 101.1
20260905195702 95 187 2.0 4.0 0.00 0.00 0.00 38 101.1
20260905195202 94 283 4.0 4.0 0.00 0.00 0.00 39 101.1
20260905194703 95 259 1.0 4.0 0.00 0.00 0.00 39 101.1
20260905194202 95 265 2.0 3.0 0.00 0.00 0.00 39 101.1
20260905193702 93 113 1.0 2.0 0.00 0.00 0.00 39 101.1
20260905193202 95 271 4.0 6.0 0.00 0.00 0.00 38 101.1
20260905192702 94 220 6.0 7.0 0.00 0.00 0.00 39 101.1
20260905192202 95 293 4.0 6.0 0.00 0.00 0.00 38 101.1
20260905191702 95 203 5.0 8.0 0.00 0.00 0.00 38 101.2
20260905191202 94 258 2.0 6.0 0.00 0.00 0.00 39 101.2
20260905190202 95 202 4.0 4.0 0.00 0.00 0.00 38 101.1
20260905185702 95 255 4.0 4.0 0.00 0.00 0.00 39 101.1
20260905185202 93 150 1.0 2.0 0.00 0.00 0.00 39 101.1
20260905184702 94 196 4.0 5.0 0.00 0.00 0.00 40 101.1
20260905184202 92 255 0.0 4.0 0.00 0.00 0.00 41 101.2
20260905183702 93 278 4.0 6.0 0.00 0.00 0.00 41 101.2
20260905183202 94 222 5.0 12.0 0.00 0.00 0.00 39 101.2
20260905182702 93 266 2.0 4.0 0.00 0.00 0.00 42 101.3
20260905181702 93 238 2.0 6.0 0.00 0.00 0.00 42 101.3
20260905181202 92 181 1.0 3.0 0.00 0.00 0.00 44 101.3
20260905180702 91 216 2.0 4.0 0.00 0.00 0.00 45 101.3
20260905180202 92 161 2.0 8.0 0.00 0.00 0.00 44 101.2
20260905175703 92 174 2.0 9.0 0.00 0.00 0.00 44 101.2
20260905175202 90 241 3.0 5.0 0.00 0.00 0.00 50 101.2
20260905174703 91 221 1.0 5.0 0.00 0.00 0.00 49 101.2
20260905174202 92 226 3.0 5.0 0.00 0.00 0.00 48 101.2
20260905173703 91 200 3.0 5.0 0.00 0.00 0.00 49 101.2
20260905173202 91 177 1.0 7.0 0.00 0.00 0.00 49 101.2
20260905172203 91 255 4.0 6.0 0.00 0.00 0.00 49 101.3
20260905171702 91 289 1.0 5.0 0.00 0.00 0.00 47 101.3
20260905171202 91 198 6.0 6.0 0.00 0.00 0.00 48 101.3
20260905170702 90 66 0.0 5.0 0.00 0.00 0.00 50 101.3
20260905170201 91 166 1.0 7.0 0.00 0.00 0.00 50 101.3
20260905165202 89 207 3.0 5.0 0.00 0.00 0.00 51 101.3
20260905164701 88 337 0.0 3.0 0.00 0.00 0.00 54 101.3
20260905164202 89 243 2.0 6.0 0.00 0.00 0.00 52 101.3
20260905163701 88 242 0.0 3.0 0.00 0.00 0.00 54 101.3
20260905163202 88 204 3.0 5.0 0.00 0.00 0.00 56 101.3
20260905162202 88 199 5.0 9.0 0.00 0.00 0.00 59 101.4
20260905161202 87 225 3.0 6.0 0.00 0.00 0.00 63 101.4
20260905160702 86 213 3.0 4.0 0.00 0.00 0.00 63 101.4
20260905160202 86 181 3.0 6.0 0.00 0.00 0.00 61 101.3
20260905155702 86 261 3.0 4.0 0.00 0.00 0.00 61 101.3
20260905155202 85 211 2.0 3.0 0.00 0.00 0.00 62 101.3
20260905154702 86 239 3.0 7.0 0.00 0.00 0.00 61 101.3
20260905154201 85 251 4.0 5.0 0.00 0.00 0.00 63 101.3
20260905153202 84 197 5.0 6.0 0.00 0.00 0.00 65 101.3
20260905152702 84 195 2.0 7.0 0.00 0.00 0.00 66 101.4
20260905151703 83 190 1.0 5.0 0.00 0.00 0.00 70 101.4
20260905151202 83 205 4.0 8.0 0.00 0.00 0.00 69 101.4
20260905150703 83 200 3.0 6.0 0.00 0.00 0.00 71 101.4
20260905150203 83 231 3.0 6.0 0.00 0.00 0.00 71 101.3
20260905145701 82 149 1.0 4.0 0.00 0.00 0.00 72 101.3
20260905145202 82 232 2.0 5.0 0.00 0.00 0.00 73 101.3
20260905144702 83 250 3.0 7.0 0.00 0.00 0.00 73 101.3
20260905144202 82 248 2.0 7.0 0.00 0.00 0.00 75 101.3
20260905143702 81 251 2.0 6.0 0.00 0.00 0.00 76 101.3
20260905143202 82 215 3.0 4.0 0.00 0.00 0.00 77 101.3
20260905142702 82 258 3.0 4.0 0.00 0.00 0.00 78 101.3
20260905142202 81 209 2.0 5.0 0.00 0.00 0.00 80 101.3
20260905141702 81 239 2.0 5.0 0.00 0.00 0.00 81 101.3
20260905141202 81 261 2.0 4.0 0.00 0.00 0.00 82 101.3
20260905140702 80 135 0.0 5.0 0.00 0.00 0.00 83 101.3
20260905135702 79 206 2.0 3.0 0.00 0.00 0.00 87 101.3
20260905135202 79 236 2.0 4.0 0.00 0.00 0.00 88 101.3
20260905134702 79 214 2.0 3.0 0.00 0.00 0.00 89 101.3
20260905132702 78 197 2.0 4.0 0.00 0.00 0.00 91 101.3
20260905132202 77 185 2.0 4.0 0.00 0.00 0.00 92 101.3
20260905131702 77 205 3.0 4.0 0.00 0.00 0.00 92 101.3
20260905131202 77 182 1.0 3.0 0.00 0.00 0.00 93 101.3
20260905130702 77 189 1.0 3.0 0.00 0.00 0.00 93 101.3
20260905130202 76 180 1.0 3.0 0.00 0.00 0.00 94 101.2
20260905125702 76 196 2.0 3.0 0.00 0.00 0.00 94 101.2
20260905125202 76 211 3.0 3.0 0.00 0.00 0.00 94 101.2
20260905124702 76 167 2.0 2.0 0.00 0.00 0.00 94 101.2
20260905123702 76 180 1.0 3.0 0.00 0.00 0.00 94 101.2
20260905123202 76 216 0.0 2.0 0.00 0.00 0.00 94 101.2
20260905122702 76 225 1.0 2.0 0.00 0.00 0.00 94 101.2
20260905122202 75 189 2.0 4.0 0.00 0.00 0.00 94 101.2
20260905121702 75 198 1.0 2.0 0.00 0.00 0.00 94 101.2
20260905121202 75 232 0.0 2.0 0.00 0.00 0.00 94 101.2
20260905120202 75 218 1.0 3.0 0.00 0.00 0.00 94 101.2
20260905115702 75 220 2.0 3.0 0.00 0.00 0.00 94 101.2
20260905115203 75 225 1.0 3.0 0.00 0.00 0.00 94 101.2
20260905113701 75 312 0.0 2.0 0.00 0.00 0.00 94 101.2
20260905113201 75 177 0.0 2.0 0.00 0.00 0.00 94 101.2
20260905112702 75 29 1.0 2.0 0.00 0.00 0.00 94 101.2
20260905112202 75 202 2.0 2.0 0.00 0.00 0.00 94 101.2
20260905111702 75 233 0.0 2.0 0.00 0.00 0.00 93 101.2
20260905110702 75 223 3.0 3.0 0.00 0.00 0.00 93 101.2
20260905110202 76 103 0.0 2.0 0.00 0.00 0.00 92 101.1
20260905105702 76 172 1.0 2.0 0.00 0.00 0.00 92 101.1
20260905105202 76 128 0.0 2.0 0.00 0.00 0.00 92 101.1
20260905103702 76 233 0.0 3.0 0.00 0.00 0.00 92 101.2
20260905103202 76 184 2.0 4.0 0.00 0.00 0.00 91 101.1
20260905102202 77 216 1.0 2.0 0.00 0.00 0.00 90 101.2
20260905101701 77 296 1.0 3.0 0.00 0.00 0.00 90 101.2
20260905101202 77 194 2.0 3.0 0.00 0.00 0.00 90 101.2
20260905100702 77 246 1.0 2.0 0.00 0.00 0.00 90 101.2
20260905100203 77 233 1.0 3.0 0.00 0.00 0.00 89 101.1
20260905095702 77 233 2.0 3.0 0.00 0.00 0.00 89 101.1
20260905095202 77 264 1.0 4.0 0.00 0.00 0.00 90 101.1
20260905094702 77 196 2.0 4.0 0.00 0.00 0.00 89 101.1
20260905094202 77 240 1.0 4.0 0.00 0.00 0.00 89 101.1
20260905093702 77 265 4.0 4.0 0.00 0.00 0.00 89 101.1
20260905093202 77 195 2.0 3.0 0.00 0.00 0.00 89 101.1
20260905092702 77 217 2.0 4.0 0.00 0.00 0.00 88 101.2
20260905092202 78 216 4.0 5.0 0.00 0.00 0.00 88 101.2
20260905091703 78 229 1.0 4.0 0.00 0.00 0.00 88 101.2
20260905090701 78 239 4.0 6.0 0.00 0.00 0.00 87 101.2
20260905090202 78 260 3.0 7.0 0.00 0.00 0.00 87 101.1
20260905085702 78 209 2.0 6.0 0.00 0.00 0.00 87 101.1
20260905085202 78 206 2.0 6.0 0.00 0.00 0.00 87 101.1
20260905084702 78 275 2.0 5.0 0.00 0.00 0.00 86 101.2
20260905084202 78 170 1.0 4.0 0.00 0.00 0.00 86 101.2
20260905083702 78 207 3.0 6.0 0.00 0.00 0.00 86 101.2
20260905083202 78 183 3.0 6.0 0.00 0.00 0.00 86 101.2
20260905082702 79 211 3.0 5.0 0.00 0.00 0.00 86 101.2
20260905082203 79 202 2.0 6.0 0.00 0.00 0.00 86 101.2
20260905081702 79 189 2.0 7.0 0.00 0.00 0.00 85 101.2
20260905080702 79 203 4.0 6.0 0.00 0.00 0.00 85 101.2
20260905075702 79 245 3.0 4.0 0.00 0.00 0.00 84 101.2
20260905075201 79 220 5.0 5.0 0.00 0.00 0.00 84 101.2
20260905074702 79 239 2.0 5.0 0.00 0.00 0.00 84 101.2
20260905074202 79 207 2.0 4.0 0.00 0.00 0.00 84 101.2
20260905073701 79 208 2.0 6.0 0.00 0.00 0.00 84 101.2
20260905073202 79 228 3.0 4.0 0.00 0.00 0.00 84 101.2
20260905072702 79 201 3.0 7.0 0.00 0.00 0.00 83 101.2
20260905072202 79 223 4.0 6.0 0.00 0.00 0.00 83 101.2
20260905070702 79 206 2.0 3.0 0.00 0.00 0.00 82 101.2
20260905070202 79 204 2.0 5.0 0.00 0.00 0.00 81 101.2
20260905065202 79 210 2.0 4.0 0.00 0.00 0.00 80 101.2
20260905064701 79 201 2.0 5.0 0.00 0.00 0.00 80 101.2
20260905063201 79 181 2.0 3.0 0.00 0.00 0.00 79 101.2
20260905062702 79 208 2.0 3.0 0.00 0.00 0.00 79 101.3
20260905062202 80 207 2.0 5.0 0.00 0.00 0.00 78 101.3
20260905061702 80 201 3.0 5.0 0.00 0.00 0.00 78 101.3
20260905061202 80 195 2.0 4.0 0.00 0.00 0.00 78 101.3
20260905060702 80 220 1.0 4.0 0.00 0.00 0.00 77 101.3
20260905060203 80 174 2.0 5.0 0.00 0.00 0.00 77 101.2
20260905055202 80 195 1.0 7.0 0.00 0.00 0.00 76 101.2
20260905054702 80 209 4.0 5.0 0.00 0.00 0.00 76 101.2
20260905054202 80 187 2.0 6.0 0.00 0.00 0.00 76 101.2
20260905053701 80 156 2.0 5.0 0.00 0.00 0.00 76 101.2
20260905053202 81 231 2.0 7.0 0.00 0.00 0.00 75 101.2
20260905052702 81 200 4.0 6.0 0.00 0.00 0.00 75 101.3
20260905052202 81 193 1.0 4.0 0.00 0.00 0.00 74 101.3
20260905051702 81 191 6.0 6.0 0.00 0.00 0.00 74 101.3
20260905051202 81 193 1.0 4.0 0.00 0.00 0.00 73 101.3
20260905050702 81 184 2.0 5.0 0.00 0.00 0.00 73 101.3
20260905045202 81 229 2.0 2.0 0.00 0.00 0.00 72 101.2
20260905044702 81 197 1.0 5.0 0.00 0.00 0.00 72 101.2
20260905043202 81 126 0.0 5.0 0.00 0.00 0.00 71 101.2
20260905042702 82 219 3.0 4.0 0.00 0.00 0.00 70 101.2
20260905042202 82 185 1.0 6.0 0.00 0.00 0.00 70 101.2
20260905041703 82 189 4.0 8.0 0.00 0.00 0.00 70 101.3
20260905041202 82 167 3.0 5.0 0.00 0.00 0.00 70 101.3
20260905040701 82 136 1.0 4.0 0.00 0.00 0.00 69 101.3
20260905035701 82 141 0.0 5.0 0.00 0.00 0.00 69 101.2
20260905035202 82 221 1.0 1.0 0.00 0.00 0.00 68 101.2
20260905034702 82 339 1.0 2.0 0.00 0.00 0.00 68 101.2
20260905034202 82 181 0.0 3.0 0.00 0.00 0.00 67 101.2
20260905033702 82 220 1.0 2.0 0.00 0.00 0.00 66 101.2
20260905033201 83 154 0.0 5.0 0.00 0.00 0.00 66 101.2
20260905032702 83 194 0.0 4.0 0.00 0.00 0.00 66 101.2
20260905032202 83 213 1.0 2.0 0.00 0.00 0.00 66 101.2
20260905031702 83 138 1.0 4.0 0.00 0.00 0.00 66 101.2
20260905031203 83 149 0.0 3.0 0.00 0.00 0.00 65 101.2
20260905030702 83 166 0.0 4.0 0.00 0.00 0.00 65 101.2
20260905030202 83 169 1.0 3.0 0.00 0.00 0.00 65 101.2
20260905025702 83 223 2.0 2.0 0.00 0.00 0.00 65 101.2
20260905024702 83 269 0.0 4.0 0.00 0.00 0.00 66 101.2
20260905024202 83 179 2.0 5.0 0.00 0.00 0.00 67 101.2
20260905023702 83 187 0.0 3.0 0.00 0.00 0.00 67 101.2
20260905023202 83 167 0.0 5.0 0.00 0.00 0.00 67 101.2